Weather History for Sisseton, SD

Change the Weather History Date:

Friday, October 4, 2013

  Actual Average Record
Temperature  
Mean Temperature 50 °F 52 °F  
Max Temperature 52 °F 64 °F 88 °F (1975)
Min Temperature 47 °F 40 °F 21 °F (1935)
Degree Days  
Heating Degree Days 15 14  
Month to date heating degree days 47 52  
Since 1 July heating degree days 193 297  
Cooling Degree Days 0 0  
Month to date cooling degree days 0 0  
Year to date cooling degree days 625 523  
Moisture  
Dew Point 49 °F    
Average Humidity 93    
Maximum Humidity 100    
Minimum Humidity 86    
Precipitation  
Precipitation 1.13 in 0.10 in 1.62 in (1951)
Month to date precipitation 1.76 0.40  
Year to date precipitation 23.07 19.68  
Snow  
Snow 0.00 in - - ()
Month to date snowfall 0.0  
Since 1 July snowfall 0.0  
Snow Depth 0.00 in    
Sea Level Pressure  
Sea Level Pressure 29.97 in    
Wind  
Wind Speed 11 mph (NE)    
Max Wind Speed 20 mph    
Max Gust Speed 29 mph    
T = Trace of Precipitation, MM = Missing Value Source: NWS Daily Summary

Daily Weather History Graph

Daily Weather History Graph

Search for Another Location

Airport:

Trip Planner

Search our weather history database for the weather conditions in past years. The results will help you decide how hot, cold, wet, or windy it might be!

Date:

Astronomy

Oct. 04, 2013 Rise Set
Actual Time 7:30 AM CDT 7:01 PM CDT
Civil Twilight 7:00 AM CDT 7:31 PM CDT
Nautical Twilight 6:26 AM CDT 8:05 PM CDT
Astronomical Twilight 5:51 AM CDT 8:40 PM CDT
Moon 7:07 AM CDT (10/4) 6:43 PM CDT (10/4)
Length of Visible Light 12h 30m
Length of Day
11h 31m
Waning Crescent, 0% of the Moon is Illuminated
Oct 4
Waning Crescent
Oct 4
New
Oct 11
First Quarter
Oct 18
Full
Oct 26
Last Quarter

Hourly Weather History & Observations

Time (CDT) Temp. Dew Point Humidity Pressure Visibility Wind Dir Wind Speed Gust Speed Precip Events Conditions
12:56 AM 50.0 °F 48.9 °F 96% 30.02 in - NNE 9.2 mph - N/A   Unknown
1:56 AM 50.0 °F 48.0 °F 93% 30.01 in - NNE 10.4 mph - N/A   Unknown
2:56 AM 50.0 °F 48.0 °F 93% 30.02 in - NNE 9.2 mph - N/A   Unknown
3:56 AM 50.0 °F 48.0 °F 93% 30.01 in - NNE 10.4 mph - N/A   Unknown
4:56 AM 50.0 °F 46.9 °F 89% 29.98 in - NNE 11.5 mph 20.7 mph N/A   Unknown
5:56 AM 50.0 °F 46.9 °F 89% 30.01 in - NNE 10.4 mph - N/A   Unknown
6:56 AM 48.0 °F 46.9 °F 96% 30.04 in - NNE 10.4 mph - 0.07 in   Unknown
7:56 AM 48.0 °F 46.9 °F 96% 30.04 in - NNE 12.7 mph 18.4 mph N/A   Unknown
8:56 AM 48.0 °F 46.9 °F 96% 30.03 in - NE 16.1 mph 26.5 mph 0.01 in   Unknown
9:56 AM 46.9 °F 46.9 °F 100% 30.03 in - NNE 17.3 mph 25.3 mph 0.02 in   Unknown
10:56 AM 46.9 °F 46.0 °F 97% 30.04 in - NE 16.1 mph 24.2 mph 0.02 in   Unknown
11:56 AM 46.9 °F 46.9 °F 100% 30.02 in - NE 13.8 mph 19.6 mph 0.03 in   Unknown
12:56 PM 48.9 °F 48.0 °F 97% 30.01 in - NE 10.4 mph 18.4 mph 0.01 in   Unknown
1:56 PM 50.0 °F 50.0 °F 100% 29.98 in - ENE 9.2 mph - N/A   Unknown
2:56 PM 51.1 °F 50.0 °F 96% 29.95 in - NE 5.8 mph - N/A   Unknown
3:56 PM 51.1 °F 50.0 °F 96% 29.93 in - NE 10.4 mph 19.6 mph 0.03 in   Unknown
4:56 PM 51.1 °F 50.0 °F 96% 29.94 in - North 5.8 mph - N/A   Unknown
5:56 PM 50.0 °F 50.0 °F 100% 29.93 in - NNE 10.4 mph - 0.17 in   Unknown
6:56 PM 52.0 °F 51.1 °F 97% 29.92 in - ENE 11.5 mph 17.3 mph 0.06 in   Unknown
7:56 PM 52.0 °F 51.1 °F 97% 29.88 in - ENE 13.8 mph 20.7 mph 0.07 in   Unknown
8:56 PM 52.0 °F 51.1 °F 97% 29.86 in - ENE 12.7 mph 21.9 mph N/A   Unknown
9:56 PM 51.1 °F 51.1 °F 100% 29.85 in - ENE 9.2 mph 19.6 mph 0.13 in   Unknown
10:56 PM 51.1 °F 51.1 °F 100% 29.86 in - ENE 10.4 mph - 0.34 in   Unknown
11:56 PM 51.1 °F 50.0 °F 96% 29.83 in - ENE 10.4 mph 19.6 mph 0.12 in   Unknown